Regional Weather Roundup
Issued by NWS Little Rock, AR

Home | Current Version | Previous Version | Graphics & Text | Print | Product List | Glossary On
Versions: 1 2 3 4 5 6 7 8 9 10 11 12 13 14 15 16 17 18 19 20 21 22 23 24 25 26 27 28 29 30 31 32 33 34 35 36 37 38 39 40 41 42 43 44 45 46 47 48 49 50
000
ASUS44 KLZK 301805
RWRLZK

WEATHER ROUNDUP FOR ARKANSAS
NATIONAL WEATHER SERVICE LITTLE ROCK AR
100 PM CDT TUE JUN 30 2015

NOTE: "FAIR" INDICATES FEW OR NO CLOUDS BELOW 12,000 FEET WITH NO
SIGNIFICANT WEATHER AND/OR OBSTRUCTIONS TO VISIBILITY.

ARZ001-003-010-029-301900-
NORTHWEST ARKANSAS

CITY           SKY/WX    TMP DP  RH WIND       PRES   REMARKS
FAYETTEVILLE   MOSUNNY   84  72  67 VRB7      30.02F HX  89
6HR MIN TEMP:  62; 6HR MAX TEMP:  84;

FORT SMITH     PTSUNNY   89  67  47 VRB5      29.98F HX  92
6HR MIN TEMP:  70; 6HR MAX TEMP:  89;

HARRISON       SUNNY     82  68  62 W6        30.01F HX  85
6HR MIN TEMP:  65; 6HR MAX TEMP:  83;

BENTONVILLE    SUNNY     84  68  58 SW10      30.02F HX  87
6HR MIN TEMP:  66; 6HR MAX TEMP:  84;

ROGERS         SUNNY     85  69  58 SW6       30.02F HX  89
6HR MIN TEMP:  67; 6HR MAX TEMP:  85;

SILOAM SPGS    SUNNY     88  70  55 W10       29.99F HX  92
6HR MIN TEMP:  64; 6HR MAX TEMP:  88;

HIGHFILL       SUNNY     86  73  65 S6        30.01F HX  93
6HR MIN TEMP:  66; 6HR MAX TEMP:  86;

SPRINGDALE     CLOUDY    84  70  61 W6        30.04F HX  88
$$

ARZ004-005-016-301900-
NORTH CENTRAL ARKANSAS

CITY           SKY/WX    TMP DP  RH WIND       PRES   REMARKS
BATESVILLE     SUNNY     86  68  54 W8        29.97F HX  89
6HR MIN TEMP:  66; 6HR MAX TEMP:  86;

FLIPPIN          N/A     88  66  48 W8        29.96F HX  90
6HR MIN TEMP:  66; 6HR MAX TEMP:  88;

MTN HOME       SUNNY     83  68  60 VRB6      29.98F HX  86
6HR MIN TEMP:  66; 6HR MAX TEMP:  84;

$$

ARZ040-041-301900-
WEST CENTRAL ARKANSAS

CITY           SKY/WX    TMP DP  RH WIND       PRES   REMARKS
MENA           MOSUNNY   91  64  40 W9        30.03F HX  93
MOUNT IDA      SUNNY     88  68  51 CALM      30.00F HX  91
6HR MIN TEMP:  71; 6HR MAX TEMP:  89;

$$

ARZ009-017-025-026-028-301900-
NORTHEAST ARKANSAS

CITY           SKY/WX    TMP DP  RH WIND       PRES   REMARKS
JONESBORO      SUNNY     87  66  49 W8        29.95F HX  89
6HR MIN TEMP:  72; 6HR MAX TEMP:  88;

NEWPORT        SUNNY     89  67  48 VRB7      29.97F HX  92
6HR MIN TEMP:  73; 6HR MAX TEMP:  90;

WALNUT RIDGE   SUNNY     86  66  51 W9G16     29.95S HX  88
6HR MIN TEMP:  70; 6HR MAX TEMP:  86;

BLYTHEVILLE    SUNNY     87  70  56 W9        29.95S HX  92
6HR MIN TEMP:  73; 6HR MAX TEMP:  87;

NW BLYTHEVILLE CLOUDY    86  68  54 W8        29.94F HX  89
$$

ARZ022-023-033-042-044-301900-
CENTRAL ARKANSAS

CITY           SKY/WX    TMP DP  RH WIND       PRES   REMARKS
LITTLE ROCK    PTSUNNY   89  65  44 NW13      29.98F HX  91
6HR MIN TEMP:  76; 6HR MAX TEMP:  90;

N LITTLE ROCK  PTSUNNY   85  72  64 NW7       29.98F HX  91
6HR MIN TEMP:  76; 6HR MAX TEMP:  85;

JACKSONVILLE   MOSUNNY   87  69  55 W7        29.98S HX  91
6HR MIN TEMP:  73; 6HR MAX TEMP:  87;

SEARCY         SUNNY     86  70  58 VRB5      29.99S HX  90
6HR MIN TEMP:  70; 6HR MAX TEMP:  86;

HOT SPRINGS    SUNNY     89  64  43 NW7       30.00F HX  90
RUSSELLVILLE   SUNNY     85  71  63 SW6       29.98F HX  90
6HR MIN TEMP:  71; 6HR MAX TEMP:  86;

CLINTON        FAIR      88  68  51 W8        29.99F HX  91
$$

ARZ036-301900-
EAST ARKANSAS

CITY           SKY/WX    TMP DP  RH WIND       PRES   REMARKS
WEST MEMPHIS   MOSUNNY   86  71  60 VRB5      29.95F HX  91
6HR MIN TEMP:  72; 6HR MAX TEMP:  86;

$$

ARZ050-053-066-070-073-301900-
SOUTHWEST ARKANSAS

CITY           SKY/WX    TMP DP  RH WIND       PRES   REMARKS
ARKADELPHIA    FAIR      92  76  59 W6        29.99F HX 104
6HR MIN TEMP:  75; 6HR MAX TEMP:  92;

CAMDEN         SUNNY     91  68  46 NE8       29.99F HX  95
TEXARKANA      SUNNY     90  70  51 VRB3      30.01F HX  95
6HR MIN TEMP:  76; 6HR MAX TEMP:  90;

EL DORADO      MOSUNNY   89  74  60 W8        30.01F HX  98
6HR MIN TEMP:  74; 6HR MAX TEMP:  89;

DE QUEEN       MOSUNNY   89  69  51 NW8       29.99F HX  93
6HR MIN TEMP:  71; 6HR MAX TEMP:  89;

$$

ARZ056-057-069-301900-
SOUTHEAST ARKANSAS

CITY           SKY/WX    TMP DP  RH WIND       PRES   REMARKS
PINE BLUFF     MOSUNNY   87  72  60 NW8       29.98F HX  93
6HR MIN TEMP:  75; 6HR MAX TEMP:  88;

STUTTGART      SUNNY     88  72  58 NW6       29.99S HX  94
6HR MIN TEMP:  73; 6HR MAX TEMP:  88;

MONTICELLO     MOSUNNY   88  76  67 W9        29.99F HX  99
6HR MIN TEMP:  72; 6HR MAX TEMP:  88; 6HR PCP: TRACE;


$$





USA.gov is the U.S. government's official web portal to all federal, state and local government web resources and services.